Погода в Линмуте

Великобритания     51°13′28″N   3°49′00″W
темп.,
°C
ветер,
м/с
пор.,
м/с
влажн.,
%
обл.,
%
осадки,
мм/ч
давл.,
гПа
погр.,
м
1 декабря, ср
ср100:00+12зсз15178523 5.4 10001120
03:00+10сз14168348 2.1 10001172
06:00+10сз151770100 3.0 10021479
09:00+9зсз141775100 0.4 10031659
12:00+9сз161874100 1.4 10031726
15:00+9сз141571100 0.9 10031578
18:00+9ссв131674100 1.9 10051534
21:00+8ссв810685 0.1 10101201
2 декабря, чт
чт200:00+8с89550 0.1 1012943
03:00+8ссз79575 0.0 1012961
06:00+8ссз101270100 0.4 10131372
09:00+7ссз11147796 0.8 10151303
12:00+7с88570 0.9 10151278
15:00+6с44555 0.0 10161058
18:00+7сз465546 0.0 10161202
21:00+7юз566496 0.0 1016529
3 декабря, пт
пт300:00+6юз8976100 0.1 1013626
03:00+7ю111688100 3.7 1008512
06:00+11ююз121789100 4.4 1003788
09:00+11зсз7997100 0.2 1002531
12:00+11зсз7792100 0.3 1002504
15:00+11зсз7989100 0.6 1000639
18:00+9зсз5672100 2.1 1000625
21:00+10зсз8107899 0.1 10011035
4 декабря, сб
сб400:00+10зсз10127795 0.4 10011178
03:00+9зсз141679100 1.6 10001397
06:00+8зсз141661100 2.4 10021883
09:00+9зсз15176069 0.2 10032233
12:00+8зсз1416607 1.1 10042156
15:00+8сз1213627 0.4 10051845
18:00+8сз1213627 1.1 10071534
21:00+8сз121464100 0.3 10091643
5 декабря, вс
вс500:00+8зсз1417657 0.4 10091763
03:00+8сз182177100 0.3 10111591
06:00+8ссз151981100 1.2 10131557
09:00+8ссз13157848 1.2 10151364
12:00+9ссз1111715 1.6 10171172
15:00+9ссз810675 0.0 10191155
18:00+9ссз776971 0.0 1021757
21:00+8ссз3367100 0.0 1022520